Flag for Hungary Weather past 2 weeks in Miskolc, Hungary

Now
69 °F

Overcast.


Feels Like: 69 °F
Forecast: 50 / 58 °F
Wind: 2 mph from Northeast

Location: Miskolc

Current Time: May 26, 2015 at 6:25:24 PM

Latest Report: May 26, 2015 at 5:00 PM


Visibility: 22 mi

Pressure: 29.70 "Hg

Humidity: 51%

Dew point: 51 °F

Location of MiskolcLocation

Historic Weather in Miskolc — Graph

°F

Miskolc temperature yesterday

Maximum temperature yesterday: 74 °F (at 4:00 PM)
Minimum temperature yesterday: 54 °F (at 1:00 AM)
Average temperature yesterday: 63 °F

Past Weeks' High & Low Weather Summary

 TemperatureHumidityPressure
High82 °F (May 19, 5:00 PM)91% (May 24, 8:00 AM)30.37 "Hg (May 24, 8:00 AM)
Low42 °F (May 15, 5:00 AM)29% (May 17, 5:00 PM)29.70 "Hg (May 26, 4:00 PM)
Average62 °F63%29.96 "Hg
* Reported May 11 5:00 PM — May 26 5:00 PM, Miskolc, Weather by CustomWeather, © 2015

Note: Actual official high and low records may vary slightly from our data, if they occured in-between our weather recording intervals... More about our weather records

Advertising

Miskolc weather history for previous 24 hours

 ConditionsComfort  
Time TempWeatherWind HumidityBarometerVisibility
5:00 PM
Tue, May 26
69 °FOvercast.2 mph51%29.70 "Hg22 mi
4:00 PM71 °FOvercast.1 mph48%29.70 "Hg22 mi
3:00 PM70 °FOvercast.2 mph53%29.71 "Hg22 mi
2:00 PM69 °FPartly sunny.2 mph57%29.73 "Hg22 mi
1:00 PM67 °FOvercast.2 mph63%29.73 "Hg22 mi
12:00 PM65 °FOvercast.2 mph64%29.74 "Hg22 mi
11:00 AM63 °FOvercast.2 mph69%29.74 "Hg22 mi
10:00 AM60 °FOvercast.2 mph75%29.74 "Hg19 mi
9:00 AM60 °FOvercast.2 mph80%29.74 "Hg16 mi
8:00 AM59 °FOvercast.2 mph82%29.73 "Hg11 mi
7:00 AM58 °FOvercast.2 mph86%29.73 "Hg9 mi
6:00 AM57 °FOvercast.1 mph88%29.73 "Hg7 mi
4:00 AM59 °FOvercast.1 mph86%29.73 "Hg7 mi
3:00 AM60 °FOvercast.1 mph86%29.74 "Hg7 mi
2:00 AM60 °FOvercast.No wind84%29.74 "Hg6 mi
1:00 AM60 °FOvercast.1 mph84%29.73 "Hg5 mi
12:00 AM61 °FOvercast.1 mph86%29.73 "Hg5 mi
10:00 PM
Mon, May 25
62 °FOvercast.No wind88%29.75 "Hg6 mi
9:00 PM62 °FOvercast.No wind87%29.75 "Hg6 mi
8:00 PM63 °FThunderstorms. Overcast.1 mph86%29.75 "Hg9 mi
7:00 PM62 °FThundershowers. Overcast.3 mph75%29.74 "Hg6 mi
6:00 PM73 °FOvercast.1 mph52%29.71 "Hg16 mi
Weather by CustomWeather, © 2015

See weather overviewHow to use our weather pages